This is the latest recevied weather packets stored in our database for station/object N2XP-3. If no packets are shown the sender has not sent any weather packets the latest 10 day(s).
| Time | Temp. | Humidity | Pressure | Rain* | Wind** | Luminosity | Snow |
|---|---|---|---|---|---|---|---|
| 1777317782 | 21.67° C | 39% | 1020.3 hPa | 0 mm | 1.34 m/s, 58° | - | - |
| 1777317480 | 21.67° C | 38% | 1020.5 hPa | 0 mm | 0.45 m/s, 146° | - | - |
| 1777316874 | 22.22° C | 38% | 1020.6 hPa | 0 mm | 1.79 m/s, 138° | - | - |
| 1777316275 | 22.78° C | 39% | 1020.6 hPa | 0 mm | 0.89 m/s, 198° | - | - |
| 1777315971 | 22.22° C | 38% | 1020.6 hPa | 0 mm | 1.34 m/s, 249° | - | - |
| 1777315465 | 21.67° C | 39% | 1020.6 hPa | 0 mm | 2.24 m/s, 231° | - | - |
| 1777315373 | 21.67° C | 39% | 1020.6 hPa | 0 mm | 2.24 m/s, 231° | - | - |
| 1777314771 | 22.22° C | 37% | 1020.7 hPa | 0 mm | 0.89 m/s, 191° | - | - |
| 1777314166 | 22.22° C | 38% | 1020.9 hPa | 0 mm | 1.79 m/s, 194° | - | - |
| 1777313863 | 22.22° C | 39% | 1020.9 hPa | 0 mm | 0.89 m/s, 304° | - | - |
| 1777313799 | 21.67° C | 38% | 1021 hPa | 0 mm | 1.34 m/s, 75° | - | - |
| 1777313563 | 21.67° C | 38% | 1021 hPa | 0 mm | 1.34 m/s, 75° | - | - |
| 1777312662 | 21.67° C | 39% | 1021.1 hPa | 0 mm | 2.24 m/s, 82° | - | - |
| 1777312359 | 21.11° C | 41% | 1021.1 hPa | 0 mm | 1.34 m/s, 86° | - | - |
| 1777310546 | 21.67° C | 41% | 1021.5 hPa | 0 mm | 1.79 m/s, 75° | - | - |
| 1777310247 | 21.67° C | 42% | 1021.5 hPa | 0 mm | 1.34 m/s, 225° | - | - |
| 1777309643 | 20.56° C | 41% | 1021.6 hPa | 0 mm | 2.68 m/s, 101° | - | - |
| 1777309344 | 20.56° C | 42% | 1021.7 hPa | 0 mm | 1.79 m/s, 39° | - | - |
| 1777308139 | 21.11° C | 44% | 1021.9 hPa | 0 mm | 0.45 m/s, 143° | - | - |
| 1777307598 | 21.11° C | 44% | 1021.8 hPa | 0 mm | 0.89 m/s, 75° | - | - |
| 1777307538 | 21.11° C | 44% | 1021.8 hPa | 0 mm | 0.89 m/s, 75° | - | - |
| 1777307238 | 21.11° C | 43% | 1021.8 hPa | 0 mm | 0.45 m/s, 101° | - | - |
| 1777306934 | 21.11° C | 44% | 1021.8 hPa | 0 mm | 0.45 m/s, 166° | - | - |
| 1777306668 | 21.11° C | 44% | 1021.7 hPa | 0 mm | 1.79 m/s, 63° | - | - |
| 1777306635 | 21.11° C | 44% | 1021.7 hPa | 0 mm | 1.79 m/s, 63° | - | - |
* Rain latest hour (hover to see other rain measurements)
** Current wind speed in m/s (hover to see current wind gust speed)